Location: Tuckahoe State Park
(38.9833°N, 75.9333°W)
Time: 19:39:10
(UTC-04:00)

Envisat - Visible Passes

Search period start: 25 April 2019 00:00
Search period end: 05 May 2019 00:00
Orbit: 764 x 766 km, 98.2° (Epoch: 25 April)

Date Brightness Start Highest point End Pass type
(mag) Time Alt. Az. Time Alt. Az. Time Alt. Az.
25 Apr 4.7 20:16:56 10° SSW 20:21:35 36° W 20:26:15 10° NNW visible
27 Apr 5.6 20:43:33 10° SW 20:47:16 20° W 20:51:02 10° NW visible
29 Apr 6.1 21:11:45 10° WSW 21:13:05 11° W 21:14:26 10° WNW visible
30 Apr 5.3 20:31:47 10° SSW 20:35:58 26° W 20:40:11 10° NW visible
02 May 5.8 20:59:01 10° WSW 21:01:44 14° W 21:04:27 10° WNW visible
03 May 4.9 20:20:08 10° SSW 20:24:40 33° W 20:29:15 10° NNW visible
